Location: ?????????
(54.7630°N, 39.4991°E)
Time: 15:40:09
(UTC+00:00)

USA 59 Rocket - Pass Details

Date: 14 April 2026
Orbit: 367 x 1664 km, 63.3° (Epoch: 17 May)

Event Time Altitude Azimuth Distance (km) Brightness Sun altitude
Rises 18:32:32 0° 307° (NW) 2,288 4.7 -16.5°
Reaches altitude 10° 18:34:24 10° 303° (WNW) 1,493 3.3 -16.7°
Maximum altitude 18:37:33 53° 225° (SW) 587 -0.1 -17.0°
Enters shadow 18:38:44 36° 169° (S) 814 0.2 -17.1°
